Jamaica, NY

11:22 PM EDT on August 31, 2016 (GMT -0400)
Kennedy International

Weather History for KJFK - May, 2013

Change the Weather History Date:

Thursday, May 16, 2013

  Actual Average Record
Temperature  
Mean Temperature 65 °F 61 °F  
Max Temperature 74 °F 68 °F 83 °F (1993)
Min Temperature 56 °F 53 °F 43 °F (1983)
Degree Days  
Heating Degree Days 0 5  
Month to date heating degree days 123 114  
Since 1 July heating degree days 4643 4765  
Cooling Degree Days 0 1  
Month to date cooling degree days 0 7  
Year to date cooling degree days 0 10  
Growing Degree Days 14 (Base 50)    
Moisture  
Dew Point 50 °F    
Average Humidity 61    
Maximum Humidity 87    
Minimum Humidity 35    
Precipitation  
Precipitation T in 0.12 in 1.49 in (1989)
Month to date precipitation 2.73 1.87  
Year to date precipitation 11.95 15.27  
Snow  
Snow 0.00 in 0.00 in - ()
Month to date snowfall 0.0 0.0  
Since 1 July snowfall 17.6 23.8  
Snow Depth 0.00 in    
Sea Level Pressure  
Sea Level Pressure 29.78 in    
Wind  
Wind Speed 9 mph (SW)    
Max Wind Speed 22 mph    
Max Gust Speed 28 mph    
Visibility 10 miles    
Events      
T = Trace of Precipitation, MM = Missing Value Source: NWS Daily Summary

Daily Weather History Graph

Daily Weather History Graph

Search for Another Location

Airport or City:

Trip Planner

Search our weather history database for the weather conditions in past years. The results will help you decide how hot, cold, wet, or windy it might be!

Date:

Astronomy

May. 16, 2013 Rise Set
Actual Time 5:37 AM EDT 8:06 PM EDT
Civil Twilight 5:05 AM EDT 8:37 PM EDT
Nautical Twilight 4:27 AM EDT 9:16 PM EDT
Astronomical Twilight 3:44 AM EDT 9:59 PM EDT
Moon 11:08 AM EDT (5/16) 12:25 AM EDT (5/16)
Length of Visible Light 15h 31m
Length of Day
14h 29m
Waxing Crescent, 35% of the Moon is Illuminated
May 16
Waxing Crescent
May 18
First Quarter
May 25
Full
May 31
Last Quarter
Jun 8
New

Hourly Weather History & Observations

Time (EDT) Temp. Dew Point Humidity Pressure Visibility Wind Dir Wind Speed Gust Speed Precip Events Conditions
12:51 AM 59.0 °F 55.0 °F 87% 29.73 in 9.0 mi SSW 3.5 mph - N/A   Scattered Clouds
1:51 AM 57.9 °F 54.0 °F 87% 29.72 in 8.0 mi SW 3.5 mph - 0.00 in   Scattered Clouds
2:51 AM 57.0 °F 54.0 °F 89% 29.72 in 7.0 mi SW 4.6 mph - N/A   Scattered Clouds
3:51 AM 59.0 °F 55.0 °F 87% 29.72 in 7.0 mi West 4.6 mph - N/A   Mostly Cloudy
4:51 AM 59.0 °F 55.9 °F 90% 29.73 in 9.0 mi NNW 8.1 mph - N/A   Mostly Cloudy
5:51 AM 63.0 °F 52.0 °F 67% 29.75 in 10.0 mi WNW 3.5 mph - N/A   Mostly Cloudy
6:51 AM 63.0 °F 53.1 °F 70% 29.77 in 10.0 mi West 3.5 mph - N/A   Mostly Cloudy
7:51 AM 66.0 °F 52.0 °F 60% 29.79 in 10.0 mi Calm Calm - N/A   Overcast
8:51 AM 66.0 °F 50.0 °F 56% 29.81 in 10.0 mi WNW 4.6 mph - N/A   Overcast
9:51 AM 63.0 °F 54.0 °F 72% 29.83 in 10.0 mi SW 6.9 mph - 0.00 in   Overcast
10:51 AM 63.0 °F 53.1 °F 70% 29.83 in 10.0 mi SW 6.9 mph - 0.00 in   Overcast
11:51 AM 70.0 °F 46.9 °F 44% 29.82 in 10.0 mi SSW 11.5 mph - N/A   Mostly Cloudy
12:51 PM 72.0 °F 48.0 °F 43% 29.80 in 10.0 mi SSW 10.4 mph - N/A   Mostly Cloudy
1:51 PM 73.0 °F 48.0 °F 41% 29.79 in 10.0 mi SSW 11.5 mph - N/A   Mostly Cloudy
2:51 PM 70.0 °F 45.0 °F 41% 29.79 in 10.0 mi South 13.8 mph - N/A   Mostly Cloudy
3:51 PM 71.1 °F 43.0 °F 36% 29.78 in 10.0 mi South 15.0 mph - N/A   Scattered Clouds
4:51 PM 70.0 °F 44.1 °F 39% 29.76 in 10.0 mi South 17.3 mph - N/A   Scattered Clouds
5:51 PM 66.9 °F 48.9 °F 52% 29.75 in 10.0 mi South 17.3 mph - N/A   Scattered Clouds
6:51 PM 64.9 °F 43.0 °F 45% 29.76 in 10.0 mi South 17.3 mph - N/A   Scattered Clouds
7:51 PM 63.0 °F 46.9 °F 56% 29.78 in 10.0 mi South 19.6 mph 27.6 mph N/A   Scattered Clouds
8:51 PM 59.0 °F 51.1 °F 75% 29.79 in 10.0 mi SSW 8.1 mph - N/A   Scattered Clouds
9:51 PM 60.1 °F 52.0 °F 75% 29.81 in 10.0 mi Calm Calm - N/A   Scattered Clouds
10:51 PM 57.9 °F 51.1 °F 78% 29.82 in 10.0 mi South 3.5 mph - N/A   Partly Cloudy
11:51 PM 57.9 °F 51.1 °F 78% 29.83 in 10.0 mi SW 5.8 mph - N/A   Scattered Clouds